Location: Härggis
(46.9540°N, 8.4897°E)
Time: 19:38:49
(UTC+00:00)

USA 308 - Pass Details

Date: 27 May 2022
Orbit: 549 x 558 km, 54.0° (Epoch: 14 June)

Event Time Altitude Azimuth Distance (km) Brightness Sun altitude
Exits shadow 02:12:34 - 275° (W) 2,433 5.8 -11.8°
Reaches altitude 10° 02:14:10 10° 282° (WNW) 1,845 5.2 -11.7°
Maximum altitude 02:18:01 34° 349° (N) 927 4.4 -11.2°
Drops below altitude 10° 02:21:53 10° 56° (NE) 1,853 6.9 -10.8°
Sets 02:24:18 0° 65° (ENE) 2,751 7.8 -10.5°
